Location: Kaarina
(60.4167°N, 22.4167°E)
Time: 22:56:49
(UTC+03:00)

Cosmos 2237 Rocket - Pass Details

Date: 24 August 2019
Orbit: 834 x 851 km, 71.0° (Epoch: 22 September)

Event Time Altitude Azimuth Distance (km) Brightness Sun altitude
Rises 21:53:14 0° 289° (WNW) 3,402 7.1 -6.5°
Reaches altitude 10° 21:56:01 10° 301° (WNW) 2,471 6.4 -6.8°
Maximum altitude 22:00:54 29° 360° (N) 1,528 4.0 -7.2°
Drops below altitude 10° 22:05:47 10° 59° (ENE) 2,481 4.4 -7.7°
Sets 22:08:36 0° 71° (ENE) 3,419 5.0 -8.0°
